Location: East Horndon
(51.5667°N, 0.3500°E)
Time: 12:33:15
(UTC+00:00)

Cosmos 2219 Rocket - Pass Details

Date: 08 November 2025
Orbit: 825 x 847 km, 71.0° (Epoch: 10 December)

Event Time Altitude Azimuth Distance (km) Brightness Sun altitude
Exits shadow 06:18:47 - 283° (WNW) 2,560 4.0 -7.5°
Reaches altitude 10° 06:19:09 10° 286° (WNW) 2,469 3.9 -7.4°
Maximum altitude 06:23:02 19° 329° (NNW) 1,939 3.7 -6.9°
Drops below altitude 10° 06:26:57 10° 13° (NNE) 2,481 4.6 -6.3°
Sets 06:30:13 0° 32° (NNE) 3,420 5.5 -5.8°
